User: anonymous   Login
Location: Leuk
(46.3174°N, 7.6341°E)
Time: 08:14:42
(UTC+00:00)
Language:

Hubble Space Telescope - Orbit

View from above orbital plane
View from above orbital plane
View from above satellite
View from above satellite

Ground track
Ground track

The orbit data is extracted from the following two-line orbital elements,

1 20580U 90037B   21166.92748765  .00000505  00000-0  19599-4 0  9995
2 20580  28.4704  75.1747 0002779  50.2986  29.0196 15.09659547510811
Epoch (UTC): 15 June 2021 22:15:34
Eccentricity: 0.0002779
inclination: 28.4704°
perigee height: 535 km
apogee height: 539 km
right ascension of ascending node: 75.1747°
argument of perigee: 50.2986°
revolutions per day: 15.09659547
mean anomaly at epoch: 29.0196°
orbit number at epoch: 51081

The dashed part of the orbit path shows where the satellite is in the earth's shadow,  

DLR